TimeHST,TemperatureF,Dew PointF,Humidity,Sea Level PressureIn,VisibilityMPH,Wind Direction,Wind SpeedMPH,Gust SpeedMPH,PrecipitationIn,Events,Conditions,WindDirDegrees,DateUTC
4:24 AM,68.0,62.6,83,30.11,10.0,NNE,8.1,-,N/A,,Scattered Clouds,30,2013-02-21 14:24:00
4:54 AM,68.0,63.0,84,30.11,10.0,NE,10.4,-,0.00,Rain,Light Rain,40,2013-02-21 14:54:00
5:54 AM,68.0,63.0,84,30.12,10.0,NE,12.7,19.6,N/A,,Clear,40,2013-02-21 15:54:00
6:54 AM,68.0,61.0,78,30.13,10.0,NNE,9.2,-,N/A,,Clear,30,2013-02-21 16:54:00
7:54 AM,70.0,62.1,76,30.15,10.0,NNE,8.1,20.7,N/A,,Scattered Clouds,20,2013-02-21 17:54:00
8:54 AM,71.1,63.0,75,30.16,10.0,NE,16.1,24.2,N/A,,Scattered Clouds,40,2013-02-21 18:54:00
9:54 AM,72.0,64.0,76,30.16,10.0,NE,18.4,25.3,N/A,,Mostly Cloudy,50,2013-02-21 19:54:00
10:54 AM,73.0,64.9,76,30.17,10.0,NE,19.6,32.2,0.00,Rain,Light Rain,50,2013-02-21 20:54:00
11:10 AM,71.6,64.4,78,30.15,10.0,NE,13.8,29.9,0.00,Rain,Light Rain,50,2013-02-21 21:10:00
11:54 AM,73.0,64.9,76,30.16,10.0,ENE,15.0,29.9,0.00,,Overcast,70,2013-02-21 21:54:00
12:54 PM,72.0,64.9,78,30.13,10.0,NE,15.0,33.4,0.00,,Mostly Cloudy,50,2013-02-21 22:54:00
1:08 PM,73.4,64.4,73,30.10,10.0,NE,23.0,35.7,N/A,,Mostly Cloudy,40,2013-02-21 23:08:00
1:30 PM,71.6,64.4,78,30.11,10.0,ENE,8.1,24.2,N/A,,Mostly Cloudy,60,2013-02-21 23:30:00
1:54 PM,71.1,64.0,78,30.13,8.0,NE,15.0,27.6,0.00,Rain,Light Rain,40,2013-02-21 23:54:00
2:54 PM,73.0,64.0,73,30.11,10.0,NE,16.1,24.2,0.00,,Overcast,50,2013-02-22 00:54:00
3:09 PM,71.6,64.4,78,30.10,10.0,NE,16.1,26.5,N/A,,Mostly Cloudy,50,2013-02-22 01:09:00
3:43 PM,69.8,64.4,83,30.08,9.0,NE,13.8,26.5,0.00,Rain,Light Rain,40,2013-02-22 01:43:00
3:50 PM,69.8,64.4,83,30.09,10.0,NE,13.8,26.5,0.00,Rain,Light Rain,40,2013-02-22 01:50:00
3:54 PM,69.1,64.9,87,30.10,10.0,NE,15.0,26.5,0.00,Rain,Light Rain,50,2013-02-22 01:54:00
4:03 PM,69.8,64.4,83,30.09,10.0,NE,11.5,29.9,0.00,,Mostly Cloudy,40,2013-02-22 02:03:00
4:54 PM,69.1,64.9,87,30.10,9.0,NNE,21.9,32.2,0.00,Rain,Light Rain,30,2013-02-22 02:54:00
5:01 PM,69.8,64.4,83,30.08,10.0,NNE,15.0,32.2,0.00,Rain,Light Rain,30,2013-02-22 03:01:00
5:08 PM,69.8,64.4,83,30.09,10.0,NNE,19.6,33.4,0.00,,Mostly Cloudy,30,2013-02-22 03:08:00
5:15 PM,69.8,64.4,83,30.09,10.0,NNE,17.3,31.1,0.00,Rain,Light Rain,30,2013-02-22 03:15:00
5:19 PM,69.8,64.4,83,30.10,10.0,NNE,16.1,31.1,0.00,Rain,Light Rain,30,2013-02-22 03:19:00
5:45 PM,69.8,64.4,83,30.10,6.0,NE,18.4,33.4,0.00,Rain,Light Rain,40,2013-02-22 03:45:00
5:54 PM,68.0,64.9,90,30.12,4.0,NE,17.3,32.2,0.02,Rain,Rain,40,2013-02-22 03:54:00
6:01 PM,69.8,64.4,83,30.11,7.0,NE,18.4,31.1,0.00,Rain,Light Rain,40,2013-02-22 04:01:00
6:54 PM,68.0,64.9,90,30.14,10.0,NE,19.6,28.8,0.02,,Overcast,50,2013-02-22 04:54:00
7:40 PM,66.2,64.4,94,30.13,10.0,NE,13.8,24.2,0.00,Rain,Light Rain,40,2013-02-22 05:40:00
7:48 PM,68.0,64.4,88,30.13,10.0,NE,10.4,21.9,0.00,,Overcast,40,2013-02-22 05:48:00
7:49 PM,68.0,64.0,87,30.14,10.0,NE,9.2,21.9,0.00,,Overcast,40,2013-02-22 05:49:00
8:02 PM,66.2,64.4,94,30.12,10.0,North,11.5,-,0.00,Rain,Light Rain,360,2013-02-22 06:02:00
8:04 PM,66.2,64.4,94,30.12,10.0,North,12.7,-,0.00,Rain,Light Rain,350,2013-02-22 06:04:00
8:18 PM,66.2,64.4,94,30.13,10.0,Variable,5.8,-,0.01,Rain,Light Rain,0,2013-02-22 06:18:00
8:54 PM,68.0,64.9,90,30.15,10.0,ENE,10.4,20.7,0.01,Rain,Light Rain,60,2013-02-22 06:54:00
9:08 PM,68.0,64.4,88,30.13,10.0,NE,12.7,26.5,0.00,,Overcast,40,2013-02-22 07:08:00
9:18 PM,68.0,64.4,88,30.12,10.0,NE,19.6,31.1,0.00,Rain,Light Rain,40,2013-02-22 07:18:00
9:54 PM,68.0,64.0,87,30.16,10.0,ENE,18.4,26.5,0.00,,Mostly Cloudy,60,2013-02-22 07:54:00
10:54 PM,68.0,64.9,90,30.15,10.0,ENE,16.1,26.5,0.00,Rain,Light Rain,70,2013-02-22 08:54:00
11:04 PM,68.0,64.4,88,30.14,10.0,NE,10.4,25.3,0.00,Rain,Light Rain,50,2013-02-22 09:04:00
11:28 PM,68.0,64.4,88,30.12,10.0,NNE,8.1,19.6,0.00,Rain,Light Rain,30,2013-02-22 09:28:00
11:54 PM,69.1,63.0,81,30.15,10.0,NE,15.0,-,0.00,Rain,Light Rain,50,2013-02-22 09:54:00